| time (UTC) | temp C | wind direction | speed KPH | gust KPH | rain 1hr cm | rain 24hr cm | rain mn cm | humidity % | barometer mb |
| 20260504184349 | 20 | 99 | 4.8 | 16.1 | 0.00 | 0.00 | 0.00 | 36 | 1007.3 |
| 20260504183845 | 20 | 254 | 29.0 | 33.8 | 0.00 | 0.00 | 0.00 | 36 | 1007.5 |
| 20260504183343 | 20 | 240 | 17.7 | 30.6 | 0.00 | 0.00 | 0.00 | 36 | 1007.6 |
| 20260504182840 | 20 | 188 | 6.4 | 29.0 | 0.00 | 0.00 | 0.00 | 38 | 1007.8 |
| 20260504182337 | 20 | 258 | 22.5 | 22.5 | 0.00 | 0.00 | 0.00 | 36 | 1007.5 |
| 20260504181834 | 20 | 231 | 19.3 | 35.4 | 0.00 | 0.00 | 0.00 | 37 | 1007.6 |
| 20260504181331 | 20 | 210 | 8.0 | 20.9 | 0.00 | 0.00 | 0.00 | 38 | 1007.5 |
| 20260504180830 | 20 | 173 | 17.7 | 30.6 | 0.00 | 0.00 | 0.00 | 38 | 1007.7 |
| 20260504180328 | 19 | 248 | 19.3 | 24.1 | 0.00 | 0.00 | 0.00 | 38 | 1007.8 |
| 20260504175826 | 18 | 255 | 6.4 | 32.2 | 0.00 | 0.00 | 0.00 | 40 | 1007.9 |
| 20260504175323 | 20 | 246 | 3.2 | 20.9 | 0.00 | 0.00 | 0.00 | 39 | 1007.8 |
| 20260504174821 | 20 | 223 | 11.3 | 24.1 | 0.00 | 0.00 | 0.00 | 37 | 1007.9 |
| 20260504174318 | 20 | 163 | 9.7 | 30.6 | 0.00 | 0.00 | 0.00 | 37 | 1008.1 |
| 20260504173815 | 20 | 267 | 9.7 | 19.3 | 0.00 | 0.00 | 0.00 | 37 | 1007.9 |
| 20260504173311 | 19 | 137 | 8.0 | 19.3 | 0.00 | 0.00 | 0.00 | 41 | 1007.7 |
| 20260504172809 | 18 | 138 | 9.7 | 22.5 | 0.00 | 0.00 | 0.00 | 40 | 1007.9 |
| 20260504172305 | 18 | 227 | 6.4 | 37.0 | 0.00 | 0.00 | 0.00 | 41 | 1007.9 |
| 20260504171801 | 19 | 207 | 12.9 | 29.0 | 0.00 | 0.00 | 0.00 | 39 | 1008.0 |
| 20260504171258 | 18 | 223 | 6.4 | 27.4 | 0.00 | 0.00 | 0.00 | 40 | 1008.0 |
| 20260504170755 | 18 | 248 | 8.0 | 19.3 | 0.00 | 0.00 | 0.00 | 40 | 1007.9 |
| 20260504170252 | 18 | 236 | 11.3 | 24.1 | 0.00 | 0.00 | 0.00 | 39 | 1008.2 |
| 20260504160211 | 17 | 241 | 19.3 | 19.3 | 0.00 | 0.00 | 0.00 | 41 | 1008.9 |
| 20260504151139 | 16 | 197 | 8.0 | 25.7 | 0.00 | 0.00 | 0.00 | 42 | 1009.3 |
| 20260504150636 | 16 | 232 | 16.1 | 16.1 | 0.00 | 0.00 | 0.00 | 42 | 1009.2 |
| 20260504150133 | 15 | 208 | 4.8 | 27.4 | 0.00 | 0.00 | 0.00 | 43 | 1009.3 |
| 20260504141102 | 13 | 184 | 4.8 | 24.1 | 0.00 | 0.00 | 0.00 | 47 | 1009.8 |
| 20260504140558 | 13 | 95 | 6.4 | 19.3 | 0.00 | 0.00 | 0.00 | 46 | 1010.0 |
| 20260504130522 | 10 | 155 | 8.0 | 14.5 | 0.00 | 0.00 | 0.00 | 52 | 1010.4 |
| 20260504110410 | 6 | 114 | 1.6 | 8.0 | 0.00 | 0.00 | 0.00 | 65 | 1010.6 |
| 20260504100326 | 5 | 144 | 3.2 | 8.0 | 0.00 | 0.00 | 0.00 | 66 | 1010.5 |
| 20260504081720 | 5 | 115 | 1.6 | 3.2 | 0.00 | 0.00 | 0.00 | 68 | 1010.7 |
| 20260504081216 | 5 | 130 | 3.2 | 4.8 | 0.00 | 0.00 | 0.00 | 67 | 1010.6 |
| 20260504080712 | 5 | 119 | 3.2 | 3.2 | 0.00 | 0.00 | 0.00 | 67 | 1010.7 |
| 20260504080209 | 5 | 135 | 3.2 | 8.0 | 0.00 | 0.00 | 0.00 | 68 | 1010.7 |
| 20260504070137 | 6 | 143 | 6.4 | 9.7 | 0.00 | 0.00 | 0.00 | 62 | 1010.8 |
| 20260504050525 | 4 | 103 | 0.0 | 3.2 | 0.00 | 0.00 | 0.00 | 80 | 1011.1 |
| 20260504050022 | 4 | 83 | 1.6 | 3.2 | 0.00 | 0.00 | 0.00 | 78 | 1011.0 |
| 20260504045519 | 4 | 100 | 1.6 | 3.2 | 0.00 | 0.00 | 0.00 | 79 | 1011.0 |
| 20260504045014 | 4 | 100 | 1.6 | 3.2 | 0.00 | 0.00 | 0.00 | 80 | 1011.0 |
| 20260504044512 | 4 | 76 | 0.0 | 3.2 | 0.00 | 0.00 | 0.00 | 80 | 1010.8 |
| 20260504044009 | 5 | 77 | 1.6 | 1.6 | 0.00 | 0.00 | 0.00 | 77 | 1010.9 |
| 20260504043506 | 5 | 95 | 0.0 | 3.2 | 0.00 | 0.00 | 0.00 | 76 | 1010.9 |
| 20260504043003 | 5 | 117 | 0.0 | 3.2 | 0.00 | 0.00 | 0.00 | 74 | 1010.8 |
| 20260504042500 | 5 | 130 | 0.0 | 3.2 | 0.00 | 0.00 | 0.00 | 74 | 1010.9 |
| 20260504041957 | 5 | 124 | 1.6 | 3.2 | 0.00 | 0.00 | 0.00 | 74 | 1011.0 |
| 20260504041453 | 5 | 78 | 3.2 | 3.2 | 0.00 | 0.00 | 0.00 | 74 | 1011.1 |
| 20260504040948 | 6 | 95 | 1.6 | 3.2 | 0.00 | 0.00 | 0.00 | 72 | 1010.8 |
| 20260504040447 | 6 | 94 | 0.0 | 3.2 | 0.00 | 0.00 | 0.00 | 70 | 1010.8 |
| 20260504035942 | 6 | 89 | 1.6 | 3.2 | 0.00 | 0.00 | 0.00 | 68 | 1010.7 |
| 20260504035440 | 6 | 104 | 0.0 | 3.2 | 0.00 | 0.00 | 0.00 | 67 | 1011.0 |
| 20260504034936 | 7 | 126 | 0.0 | 1.6 | 0.00 | 0.00 | 0.00 | 69 | 1010.8 |
| 20260504034434 | 7 | 113 | 0.0 | 1.6 | 0.00 | 0.00 | 0.00 | 68 | 1011.2 |
| 20260504033931 | 7 | 93 | 1.6 | 3.2 | 0.00 | 0.00 | 0.00 | 69 | 1011.0 |
| 20260504033429 | 7 | 73 | 1.6 | 3.2 | 0.00 | 0.00 | 0.00 | 65 | 1011.0 |
| 20260504032926 | 7 | 122 | 3.2 | 3.2 | 0.00 | 0.00 | 0.00 | 64 | 1011.0 |
| 20260504032422 | 7 | 142 | 1.6 | 3.2 | 0.00 | 0.00 | 0.00 | 64 | 1011.0 |
| 20260504031919 | 7 | 103 | 0.0 | 0.0 | 0.00 | 0.00 | 0.00 | 65 | 1011.1 |
| 20260504031417 | 8 | 108 | 3.2 | 3.2 | 0.00 | 0.00 | 0.00 | 59 | 1010.9 |
| 20260504030913 | 7 | 116 | 3.2 | 3.2 | 0.00 | 0.00 | 0.00 | 63 | 1010.8 |
| 20260504030410 | 8 | 89 | 0.0 | 3.2 | 0.00 | 0.00 | 0.00 | 61 | 1010.8 |
| 20260504025906 | 7 | 109 | 3.2 | 3.2 | 0.00 | 0.00 | 0.00 | 60 | 1011.1 |
| 20260504025403 | 7 | 111 | 1.6 | 3.2 | 0.00 | 0.00 | 0.00 | 61 | 1011.1 |
| 20260504024900 | 7 | 102 | 1.6 | 3.2 | 0.00 | 0.00 | 0.00 | 64 | 1011.1 |
| 20260504024356 | 8 | 77 | 1.6 | 3.2 | 0.00 | 0.00 | 0.00 | 63 | 1011.3 |
| 20260504023854 | 8 | 41 | 1.6 | 3.2 | 0.00 | 0.00 | 0.00 | 63 | 1011.3 |
| 20260504023350 | 9 | 116 | 0.0 | 3.2 | 0.00 | 0.00 | 0.00 | 54 | 1011.2 |
| 20260504022845 | 8 | 131 | 4.8 | 4.8 | 0.00 | 0.00 | 0.00 | 55 | 1011.2 |
| 20260504022343 | 8 | 143 | 3.2 | 3.2 | 0.00 | 0.00 | 0.00 | 56 | 1011.3 |
| 20260504021839 | 8 | 113 | 1.6 | 6.4 | 0.00 | 0.00 | 0.00 | 58 | 1011.4 |
| 20260504021337 | 8 | 93 | 3.2 | 4.8 | 0.00 | 0.00 | 0.00 | 54 | 1011.2 |
| 20260504020834 | 8 | 101 | 3.2 | 4.8 | 0.00 | 0.00 | 0.00 | 53 | 1011.1 |
| 20260504020330 | 9 | 51 | 3.2 | 3.2 | 0.00 | 0.00 | 0.00 | 57 | 1011.3 |
| 20260504015827 | 9 | 26 | 3.2 | 3.2 | 0.00 | 0.00 | 0.00 | 52 | 1011.1 |
| 20260504015323 | 8 | 101 | 3.2 | 4.8 | 0.00 | 0.00 | 0.00 | 52 | 1011.1 |
| 20260504014819 | 8 | 109 | 1.6 | 3.2 | 0.00 | 0.00 | 0.00 | 52 | 1011.1 |
| 20260504014315 | 8 | 112 | 3.2 | 3.2 | 0.00 | 0.00 | 0.00 | 52 | 1011.0 |
| 20260504013813 | 9 | 97 | 1.6 | 1.6 | 0.00 | 0.00 | 0.00 | 51 | 1011.1 |
| 20260504013311 | 9 | 124 | 0.0 | 1.6 | 0.00 | 0.00 | 0.00 | 50 | 1011.1 |
| 20260504012807 | 10 | 229 | 0.0 | 6.4 | 0.00 | 0.00 | 0.00 | 50 | 1010.9 |
| 20260504012305 | 9 | 119 | 3.2 | 4.8 | 0.00 | 0.00 | 0.00 | 50 | 1011.1 |
| 20260504011802 | 10 | 112 | 0.0 | 3.2 | 0.00 | 0.00 | 0.00 | 50 | 1010.9 |
| 20260504011258 | 10 | 22 | 0.0 | 3.2 | 0.00 | 0.00 | 0.00 | 50 | 1011.0 |
| 20260504010754 | 10 | 212 | 0.0 | 4.8 | 0.00 | 0.00 | 0.00 | 50 | 1011.0 |
| 20260504010249 | 10 | 293 | 0.0 | 1.6 | 0.00 | 0.00 | 0.00 | 50 | 1010.8 |
| 20260504005747 | 10 | 21 | 1.6 | 6.4 | 0.00 | 0.00 | 0.00 | 47 | 1010.8 |
| 20260504005244 | 10 | 29 | 0.0 | 3.2 | 0.00 | 0.00 | 0.00 | 49 | 1011.0 |
| 20260504004742 | 10 | 6 | 0.0 | 1.6 | 0.00 | 0.00 | 0.00 | 46 | 1010.9 |
| 20260504004238 | 11 | 163 | 0.0 | 6.4 | 0.00 | 0.00 | 0.00 | 44 | 1010.9 |
| 20260504003735 | 11 | 287 | 4.8 | 8.0 | 0.00 | 0.00 | 0.00 | 44 | 1010.8 |
| 20260504003232 | 11 | 247 | 16.1 | 16.1 | 0.00 | 0.00 | 0.00 | 44 | 1010.8 |
| 20260504002729 | 10 | 2 | 1.6 | 8.0 | 0.00 | 0.00 | 0.00 | 47 | 1010.6 |
| 20260504002225 | 10 | 33 | 0.0 | 3.2 | 0.00 | 0.00 | 0.00 | 47 | 1010.5 |
| 20260504001724 | 10 | 32 | 1.6 | 3.2 | 0.00 | 0.00 | 0.00 | 48 | 1010.5 |
| 20260504001220 | 10 | 154 | 1.6 | 4.8 | 0.00 | 0.00 | 0.00 | 46 | 1010.4 |
| 20260504000717 | 10 | 173 | 0.0 | 3.2 | 0.00 | 0.00 | 0.00 | 45 | 1010.3 |
| 20260504000214 | 10 | 141 | 0.0 | 3.2 | 0.00 | 0.00 | 0.00 | 46 | 1010.2 |
| 20260503235712 | 10 | 222 | 3.2 | 4.8 | 0.00 | 0.00 | 0.00 | 44 | 1010.2 |
| 20260503235209 | 11 | 225 | 3.2 | 6.4 | 0.00 | 0.00 | 0.00 | 43 | 1010.1 |
| 20260503234707 | 10 | 146 | 0.0 | 3.2 | 0.00 | 0.00 | 0.00 | 45 | 1010.2 |
| 20260503234205 | 10 | 125 | 0.0 | 3.2 | 0.00 | 0.00 | 0.00 | 45 | 1010.0 |
| 20260503233701 | 11 | 193 | 1.6 | 8.0 | 0.00 | 0.00 | 0.00 | 44 | 1010.0 |
| 20260503233157 | 11 | 223 | 1.6 | 4.8 | 0.00 | 0.00 | 0.00 | 44 | 1010.0 |
| 20260503232654 | 11 | 224 | 4.8 | 14.5 | 0.00 | 0.00 | 0.00 | 42 | 1010.0 |
| 20260503232151 | 11 | 233 | 4.8 | 4.8 | 0.00 | 0.00 | 0.00 | 43 | 1010.0 |
| 20260503231650 | 11 | 220 | 1.6 | 4.8 | 0.00 | 0.00 | 0.00 | 44 | 1010.0 |
| 20260503231145 | 11 | 196 | 3.2 | 6.4 | 0.00 | 0.00 | 0.00 | 46 | 1010.1 |
| 20260503230642 | 11 | 202 | 1.6 | 6.4 | 0.00 | 0.00 | 0.00 | 47 | 1010.0 |
| 20260503230139 | 11 | 132 | 3.2 | 4.8 | 0.00 | 0.00 | 0.00 | 45 | 1010.0 |
| 20260503225637 | 11 | 204 | 3.2 | 4.8 | 0.00 | 0.00 | 0.00 | 44 | 1010.1 |
| 20260503225136 | 11 | 225 | 6.4 | 9.7 | 0.00 | 0.00 | 0.00 | 42 | 1010.1 |
| 20260503224634 | 11 | 136 | 3.2 | 6.4 | 0.00 | 0.00 | 0.00 | 44 | 1010.2 |
| 20260503224132 | 11 | 260 | 1.6 | 4.8 | 0.00 | 0.00 | 0.00 | 43 | 1010.0 |
| 20260503223630 | 11 | 239 | 1.6 | 14.5 | 0.00 | 0.00 | 0.00 | 42 | 1010.1 |
| 20260503223125 | 11 | 254 | 9.7 | 17.7 | 0.00 | 0.00 | 0.00 | 42 | 1010.1 |
| 20260503222623 | 11 | 251 | 6.4 | 8.0 | 0.00 | 0.00 | 0.00 | 43 | 1010.1 |
| 20260503222121 | 11 | 233 | 6.4 | 14.5 | 0.00 | 0.00 | 0.00 | 42 | 1010.2 |
| 20260503221619 | 11 | 263 | 1.6 | 11.3 | 0.00 | 0.00 | 0.00 | 42 | 1010.2 |
| 20260503221116 | 11 | 216 | 8.0 | 14.5 | 0.00 | 0.00 | 0.00 | 42 | 1010.1 |
| 20260503220613 | 12 | 245 | 9.7 | 19.3 | 0.00 | 0.00 | 0.00 | 42 | 1010.2 |
| 20260503220109 | 12 | 241 | 6.4 | 12.9 | 0.00 | 0.00 | 0.00 | 39 | 1010.3 |
| 20260503215606 | 12 | 351 | 4.8 | 17.7 | 0.00 | 0.00 | 0.00 | 41 | 1010.4 |
| 20260503215103 | 12 | 244 | 12.9 | 16.1 | 0.00 | 0.00 | 0.00 | 42 | 1010.3 |
| 20260503214602 | 12 | 326 | 3.2 | 16.1 | 0.00 | 0.00 | 0.00 | 41 | 1010.2 |
| 20260503214057 | 12 | 17 | 8.0 | 14.5 | 0.00 | 0.00 | 0.00 | 42 | 1010.3 |
| 20260503213556 | 12 | 28 | 3.2 | 8.0 | 0.00 | 0.00 | 0.00 | 42 | 1010.5 |
| 20260503213052 | 12 | 254 | 6.4 | 16.1 | 0.00 | 0.00 | 0.00 | 42 | 1010.4 |
| 20260503212550 | 11 | 257 | 6.4 | 22.5 | 0.00 | 0.00 | 0.00 | 42 | 1010.4 |
| 20260503212047 | 11 | 256 | 11.3 | 12.9 | 0.00 | 0.00 | 0.00 | 43 | 1010.1 |
| 20260503211544 | 11 | 258 | 9.7 | 22.5 | 0.00 | 0.00 | 0.00 | 43 | 1010.5 |
| 20260503211039 | 11 | 187 | 3.2 | 32.2 | 0.00 | 0.00 | 0.00 | 45 | 1010.5 |
| 20260503210537 | 11 | 251 | 17.7 | 19.3 | 0.00 | 0.00 | 0.00 | 44 | 1010.4 |
| 20260503210032 | 11 | 304 | 3.2 | 22.5 | 0.00 | 0.00 | 0.00 | 44 | 1010.5 |
| 20260503205529 | 10 | 315 | 4.8 | 27.4 | 0.00 | 0.00 | 0.00 | 46 | 1010.7 |
| 20260503205026 | 10 | 313 | 3.2 | 32.2 | 0.00 | 0.00 | 0.00 | 46 | 1010.6 |
| 20260503204523 | 10 | 354 | 1.6 | 41.8 | 0.00 | 0.00 | 0.00 | 45 | 1010.4 |
| 20260503204020 | 11 | 256 | 6.4 | 24.1 | 0.00 | 0.00 | 0.00 | 43 | 1010.3 |
| 20260503203517 | 11 | 242 | 14.5 | 33.8 | 0.00 | 0.00 | 0.00 | 42 | 1010.3 |
| 20260503203014 | 11 | 244 | 8.0 | 37.0 | 0.00 | 0.00 | 0.00 | 43 | 1010.3 |
| 20260503202512 | 11 | 244 | 6.4 | 30.6 | 0.00 | 0.00 | 0.00 | 42 | 1010.3 |
| 20260503202010 | 11 | 289 | 9.7 | 24.1 | 0.00 | 0.00 | 0.00 | 41 | 1010.2 |
| 20260503201508 | 11 | 293 | 1.6 | 9.7 | 0.00 | 0.00 | 0.00 | 40 | 1010.3 |
| 20260503201004 | 11 | 268 | 12.9 | 19.3 | 0.00 | 0.00 | 0.00 | 42 | 1010.3 |
| 20260503200501 | 11 | 255 | 8.0 | 24.1 | 0.00 | 0.00 | 0.00 | 38 | 1010.5 |
| 20260503195957 | 11 | 256 | 4.8 | 12.9 | 0.00 | 0.00 | 0.00 | 38 | 1010.5 |
| 20260503195455 | 11 | 251 | 14.5 | 14.5 | 0.00 | 0.00 | 0.00 | 39 | 1010.6 |
| 20260503194951 | 11 | 226 | 11.3 | 33.8 | 0.00 | 0.00 | 0.00 | 38 | 1010.3 |
| 20260503194449 | 12 | 266 | 12.9 | 32.2 | 0.00 | 0.00 | 0.00 | 36 | 1010.5 |
| 20260503193943 | 11 | 276 | 6.4 | 24.1 | 0.00 | 0.00 | 0.00 | 37 | 1010.4 |
| 20260503193439 | 11 | 256 | 3.2 | 17.7 | 0.00 | 0.00 | 0.00 | 37 | 1010.6 |
| 20260503192935 | 11 | 330 | 4.8 | 25.7 | 0.00 | 0.00 | 0.00 | 37 | 1010.6 |
| 20260503192432 | 11 | 284 | 4.8 | 17.7 | 0.00 | 0.00 | 0.00 | 38 | 1010.7 |
| 20260503191927 | 11 | 286 | 3.2 | 8.0 | 0.00 | 0.00 | 0.00 | 36 | 1010.8 |
| 20260503191425 | 11 | 276 | 4.8 | 9.7 | 0.00 | 0.00 | 0.00 | 36 | 1010.7 |
| 20260503190921 | 12 | 334 | 8.0 | 14.5 | 0.00 | 0.00 | 0.00 | 34 | 1010.5 |
| 20260503190419 | 11 | 237 | 19.3 | 22.5 | 0.00 | 0.00 | 0.00 | 35 | 1010.7 |
| 20260503185915 | 11 | 280 | 17.7 | 27.4 | 0.00 | 0.00 | 0.00 | 36 | 1010.9 |
| 20260503185412 | 11 | 271 | 9.7 | 37.0 | 0.00 | 0.00 | 0.00 | 37 | 1010.8 |
| 20260503184911 | 11 | 265 | 8.0 | 25.7 | 0.00 | 0.00 | 0.00 | 36 | 1010.7 |